Location: Beekmeers
(50.8953°N, 3.6968°E)
Time: 02:11:47
(UTC+00:00)

Meteor 1-24 Rocket - Pass Details

Date: 23 May 2024
Orbit: 788 x 927 km, 81.3° (Epoch: 21 June)

Event Time Altitude Azimuth Distance (km) Brightness Sun altitude
Exits shadow 02:02:47 - 173° (S) 2,879 6.0 -12.0°
Reaches altitude 10° 02:03:28 10° 172° (S) 2,625 5.8 -12.0°
Maximum altitude 02:09:21 57° 95° (E) 1,083 4.4 -11.5°
Drops below altitude 10° 02:15:12 10° 19° (NNE) 2,617 7.6 -10.9°
Sets 02:17:41 0° 16° (NNE) 3,549 8.4 -10.7°
